ISR119 EDDH-LLBG

Flight info

Callsign ISR119
Flight time N/A
Altitude 35000
Route AMLUH2G AMLUH M852 DENIX DCT ZUCKA DCT ARMUT T703 ARBAX/N0452F340 T108 OSTES/N0450F350 T700 BIBAG L605 ESEGA DCT VELOM DCT GOTAR DCT BABIT DCT OKLOP DCT NISVA Y505 NIKTI UN127 IMR/N0451F370 UG80 BANRO UN128 RDS UL609 ALKIS L609 ZUKKO
Aircraft A320/M-SDE2FGHIJ1LORVWY/SB1

Departure

Time 2026-04-30 21:17
Airport Hamburg Helmut Schmidt Airport (EDDH)

Arrival

Time N/A
Airport Ben Gurion International Airport (LLBG)
Time Latitude Longitude Altitude Speed Heading
2026-04-30 20:55 53.62531 10.00388 46 ft 0 kts 64°
2026-04-30 21:09 53.62527 10.00372 46 ft 4 kts 49°
2026-04-30 21:09 53.62509 10.00360 45 ft 4 kts 338°
2026-04-30 21:09 53.62493 10.00373 44 ft 1 kts 331°
2026-04-30 21:09 53.62491 10.00375 44 ft 0 kts 331°
2026-04-30 21:12 53.62493 10.00373 44 ft 1 kts 331°
2026-04-30 21:12 53.62508 10.00359 44 ft 4 kts 331°
2026-04-30 21:13 53.62538 10.00331 45 ft 6 kts 332°
2026-04-30 21:13 53.62574 10.00285 46 ft 7 kts 299°
2026-04-30 21:13 53.62569 10.00202 47 ft 2 kts 246°
2026-04-30 21:13 53.62568 10.00197 47 ft 0 kts 245°
2026-04-30 21:15 53.62567 10.00194 47 ft 1 kts 245°
2026-04-30 21:15 53.62558 10.00164 45 ft 6 kts 245°
2026-04-30 21:15 53.62544 10.00093 47 ft 7 kts 263°
2026-04-30 21:15 53.62582 9.99994 47 ft 14 kts 327°
2026-04-30 21:16 53.62740 9.99854 45 ft 52 kts 333°
2026-04-30 21:16 53.63250 9.99418 45 ft 110 kts 333°
2026-04-30 21:16 53.64063 9.98723 43 ft 154 kts 333°
2026-04-30 21:16 53.64755 9.98123 132 ft 171 kts 333°
2026-04-30 21:17 53.65817 9.97223 758 ft 171 kts 333°